User: anonymous   Login
Location: Gleizolles
(44.4833°N, 6.7667°E)
Time: 11:34:03
(UTC+00:00)
Language:

DUCHIFAT 1 - Orbit

View from above orbital plane
View from above orbital plane
View from above satellite
View from above satellite

Ground track
Ground track

The orbit data is extracted from the following two-line orbital elements,

1 40021U 14033M   22333.43348376  .00004132  00000-0  39098-3 0  9991
2 40021  98.0340 286.9226 0010626 208.8083 151.2551 14.94184767459326
Epoch (UTC): 29 November 2022 10:24:12
Eccentricity: 0.0010626
inclination: 98.0340°
perigee height: 577 km
apogee height: 592 km
right ascension of ascending node: 286.9226°
argument of perigee: 208.8083°
revolutions per day: 14.94184767
mean anomaly at epoch: 151.2551°
orbit number at epoch: 45932

The dashed part of the orbit path shows where the satellite is in the earth's shadow,  

DLR